Weather History for EPGD - March, 2013

Change the Weather History Date:

Wednesday, March 13, 2013

  Actual Average Record
Temperature  
Mean Temperature 19 °F -  
Max Temperature 28 °F 44 °F 60 °F (2007)
Min Temperature 10 °F 29 °F 10 °F (2013)
Degree Days  
Heating Degree Days 46    
Moisture  
Dew Point 12 °F    
Average Humidity 74    
Maximum Humidity 92    
Minimum Humidity 55    
Precipitation  
Precipitation 0.00 in - - ()
Sea Level Pressure  
Sea Level Pressure 29.65 in    
Wind  
Wind Speed 3 mph ()    
Max Wind Speed 8 mph    
Max Gust Speed -    
Visibility 5.6 miles    
Events Snow    
Averages and records for this station are not official NWS values.
T = Trace of Precipitation, MM = Missing Value Source: Averaged Metar Reports

Daily Weather History Graph

Daily Weather History Graph

Search for Another Location

Airport or City:

Trip Planner

Search our weather history database for the weather conditions in past years. The results will help you decide how hot, cold, wet, or windy it might be!

Date:

Astronomy

Mar. 13, 2013 Rise Set
Actual Time 6:05 AM CET 5:46 PM CET
Civil Twilight 5:30 AM CET 6:21 PM CET
Nautical Twilight 4:48 AM CET 7:03 PM CET
Astronomical Twilight 4:05 AM CET 7:46 PM CET
Moon 6:14 AM CET (3/13) 8:11 PM CET (3/13)
Length of Visible Light 12h 51m
Length of Day
11h 40m
Waxing Crescent, 3% of the Moon is Illuminated
Mar 13
Waxing Crescent
Mar 19
First Quarter
Mar 27
Full
Apr 3
Last Quarter
Apr 10
New

Hourly Weather History & Observations

Time (CET) Temp. Windchill Dew Point Humidity Pressure Visibility Wind Dir Wind Speed Gust Speed Precip Events Conditions
12:00 AM 21.2 °F - 14.0 °F 74% 29.65 in 6.2 mi East 2.3 mph - N/A   Mostly Cloudy
12:30 AM 21.2 °F - 12.2 °F 68% 29.65 in 6.2 mi Variable 1.2 mph - N/A   Mostly Cloudy
1:00 AM 19.4 °F - 12.2 °F 74% 29.65 in 6.2 mi Variable 1.2 mph - N/A   Mostly Cloudy
1:30 AM 19.4 °F - 12.2 °F 74% 29.65 in 6.2 mi Variable 1.2 mph - N/A   Mostly Cloudy
2:00 AM 19.4 °F - 12.2 °F 74% 29.62 in 6.2 mi West 2.3 mph - N/A   Mostly Cloudy
2:30 AM 17.6 °F - 12.2 °F 79% 29.62 in 6.2 mi Variable 1.2 mph - N/A   Mostly Cloudy
3:00 AM 17.6 °F 12.3 °F 12.2 °F 79% 29.62 in 6.2 mi WNW 3.5 mph - N/A   Mostly Cloudy
3:30 AM 15.8 °F 10.2 °F 10.4 °F 79% 29.62 in 6.2 mi WNW 3.5 mph - N/A   Mostly Cloudy
4:00 AM 15.8 °F - 10.4 °F 79% 29.62 in 6.2 mi West 2.3 mph - N/A   Scattered Clouds
4:30 AM 12.2 °F 4.3 °F 8.6 °F 85% 29.62 in 6.2 mi WNW 4.6 mph - N/A   Scattered Clouds
5:00 AM 12.2 °F - 8.6 °F 85% 29.62 in 6.2 mi West 2.3 mph - N/A   Scattered Clouds
5:30 AM 10.4 °F - 8.6 °F 92% 29.62 in 6.2 mi West 2.3 mph - N/A   Mostly Cloudy
6:00 AM 10.4 °F - 6.8 °F 85% 29.62 in 6.2 mi West 2.3 mph - N/A   Mostly Cloudy
6:30 AM 10.4 °F 4.0 °F 8.6 °F 92% 29.62 in 6.2 mi West 3.5 mph - N/A   Mostly Cloudy
7:00 AM 12.2 °F - 8.6 °F 85% 29.62 in 5.0 mi Variable 2.3 mph - N/A   Mostly Cloudy
7:30 AM 12.2 °F - 8.6 °F 85% 29.62 in 3.7 mi West 2.3 mph - N/A   Mostly Cloudy
8:00 AM 14.0 °F 8.2 °F 10.4 °F 86% 29.62 in 3.7 mi WNW 3.5 mph - N/A   Mostly Cloudy
8:30 AM 15.8 °F 10.2 °F 10.4 °F 79% 29.62 in 3.7 mi WNW 3.5 mph - N/A   Mostly Cloudy
9:00 AM 17.6 °F - 12.2 °F 79% 29.62 in 3.7 mi WNW 2.3 mph - N/A   Mostly Cloudy
9:30 AM 19.4 °F - 12.2 °F 74% 29.62 in 3.7 mi NW 2.3 mph - N/A   Mostly Cloudy
10:00 AM 23.0 °F 18.4 °F 14.0 °F 68% 29.62 in 5.0 mi NW 3.5 mph - N/A   Mostly Cloudy
10:30 AM 24.8 °F 16.1 °F 12.2 °F 59% 29.62 in 6.2 mi NNE 8.1 mph - N/A   Mostly Cloudy
11:00 AM 24.8 °F 16.1 °F 14.0 °F 64% 29.65 in 6.2 mi NE 8.1 mph - N/A   Mostly Cloudy
11:30 AM 26.6 °F 20.0 °F 14.0 °F 59% 29.65 in 6.2 mi NNE 5.8 mph - N/A   Mostly Cloudy
12:00 PM 26.6 °F 20.0 °F 14.0 °F 59% 29.65 in 6.2 mi NE 5.8 mph - N/A   Mostly Cloudy
12:30 PM 26.6 °F 20.0 °F 14.0 °F 59% 29.65 in 6.2 mi East 5.8 mph - N/A   Scattered Clouds
1:00 PM 26.6 °F 19.1 °F 14.0 °F 59% 29.65 in 6.2 mi NNE 6.9 mph - N/A   Scattered Clouds
1:30 PM 28.4 °F 23.3 °F 14.0 °F 55% 29.65 in 6.2 mi Variable 4.6 mph - N/A   Scattered Clouds
2:00 PM 28.4 °F - 14.0 °F 55% 29.65 in 6.2 mi Variable 2.3 mph - N/A   Partly Cloudy
2:30 PM 26.6 °F 22.6 °F 14.0 °F 59% 29.65 in 6.2 mi NE 3.5 mph - N/A   Partly Cloudy
3:00 PM 28.4 °F 21.2 °F 14.0 °F 55% 29.65 in 6.2 mi NNE 6.9 mph - N/A   Partly Cloudy
3:30 PM 26.6 °F 20.0 °F 14.0 °F 59% 29.65 in 6.2 mi NE 5.8 mph - N/A   Partly Cloudy
4:00 PM 26.6 °F 21.2 °F 14.0 °F 59% 29.65 in 6.2 mi ENE 4.6 mph - N/A   Partly Cloudy
4:30 PM 26.6 °F 21.2 °F 14.0 °F 59% 29.65 in - NE 4.6 mph - N/A   Clear
5:00 PM 26.6 °F 20.0 °F 14.0 °F 59% 29.65 in - NE 5.8 mph - N/A   Clear
5:30 PM 24.8 °F 19.1 °F 14.0 °F 64% 29.65 in - NE 4.6 mph - N/A   Clear
6:00 PM 23.0 °F - 14.0 °F 68% 29.65 in - Variable 2.3 mph - N/A   Clear
6:30 PM 21.2 °F - 14.0 °F 74% 29.68 in - East 1.2 mph - N/A   Clear
7:00 PM 21.2 °F - 14.0 °F 74% 29.68 in - Variable 1.2 mph - N/A   Clear
7:30 PM 19.4 °F - 14.0 °F 80% 29.68 in - West 1.2 mph - N/A   Clear
8:00 PM 17.6 °F - 14.0 °F 86% 29.68 in - West 1.2 mph - N/A   Clear
8:30 PM 17.6 °F - 12.2 °F 79% 29.68 in - WSW 1.2 mph - N/A   Clear
9:00 PM 15.8 °F - 12.2 °F 86% 29.71 in - WNW 1.2 mph - N/A   Clear
9:30 PM 15.8 °F - 12.2 °F 86% 29.71 in - West 1.2 mph - N/A   Clear
10:00 PM 15.8 °F 10.2 °F 12.2 °F 86% 29.71 in - WNW 3.5 mph - N/A   Clear
10:30 PM 14.0 °F - 10.4 °F 86% 29.71 in 5.0 mi WNW 2.3 mph - N/A   Scattered Clouds
11:00 PM 14.0 °F 8.2 °F 10.4 °F 86% 29.71 in 3.7 mi WNW 3.5 mph - N/A Snow Light Snow
11:30 PM 14.0 °F - 10.4 °F 86% 29.71 in 3.7 mi WNW 2.3 mph - N/A Snow Light Snow